Location: Ambrosina
(19.9365°S, 43.9833°W)
Time: 00:06:57
(UTC+00:00)

Hubble Space Telescope - Pass Details

Date: 11 May 2021
Orbit: 535 x 539 km, 28.5° (Epoch: 20 June)

Event Time Altitude Azimuth Distance (km) Brightness Sun altitude
Rises 21:50:05 0° 309° (NW) 2,672 5.5 -19.2°
Reaches altitude 10° 21:52:26 10° 316° (NW) 1,785 4.2 -19.7°
Maximum altitude 21:56:20 41° 26° (NNE) 787 1.4 -20.6°
Enters shadow 21:56:37 40° 38° (NE) 796 1.4 -20.7°
